SKY130 OMSJ-OTHH

Flight info

Callsign SKY130
Flight time N/A
Altitude 22000
Route NABIX P699 OXARI M430 TOSNA
Aircraft A346/H-SDE2E3FGHIJ3J4J5M1RWXY/LB1D1

Departure

Time 2026-04-30 11:17
Airport Sharjah International Airport (OMSJ)

Arrival

Time N/A
Airport Hamad International Airport (OTHH)
Time Latitude Longitude Altitude Speed Heading
2026-04-30 10:43 25.32490 55.51054 124 ft 0 kts 122°
2026-04-30 10:59 25.32491 55.51053 124 ft 2 kts 122°
2026-04-30 10:59 25.32504 55.51029 118 ft 4 kts 123°
2026-04-30 10:59 25.32514 55.51013 118 ft 4 kts 95°
2026-04-30 11:00 25.32512 55.50996 118 ft 4 kts 72°
2026-04-30 11:00 25.32501 55.50976 118 ft 4 kts 41°
2026-04-30 11:00 25.32479 55.50960 118 ft 4 kts 30°
2026-04-30 11:00 25.32472 55.50955 118 ft 0 kts 32°
2026-04-30 11:01 25.32472 55.50956 118 ft 0 kts 32°
2026-04-30 11:02 25.32475 55.50957 124 ft 1 kts 32°
2026-04-30 11:03 25.32492 55.50969 120 ft 5 kts 32°
2026-04-30 11:03 25.32529 55.50994 120 ft 8 kts 32°
2026-04-30 11:03 25.32584 55.51032 120 ft 4 kts 32°
2026-04-30 11:04 25.32616 55.51055 120 ft 5 kts 32°
2026-04-30 11:04 25.32658 55.51084 120 ft 9 kts 32°
2026-04-30 11:04 25.32719 55.51127 120 ft 10 kts 32°
2026-04-30 11:04 25.32768 55.51161 121 ft 7 kts 32°
2026-04-30 11:05 25.32822 55.51199 120 ft 11 kts 32°
2026-04-30 11:05 25.32871 55.51234 120 ft 6 kts 32°
2026-04-30 11:05 25.32894 55.51249 120 ft 3 kts 32°
2026-04-30 11:05 25.32908 55.51268 119 ft 4 kts 79°
2026-04-30 11:06 25.32898 55.51303 122 ft 7 kts 115°
2026-04-30 11:06 25.32870 55.51360 122 ft 10 kts 121°
2026-04-30 11:06 25.32826 55.51438 120 ft 13 kts 122°
2026-04-30 11:06 25.32769 55.51535 122 ft 17 kts 123°
2026-04-30 11:07 25.32699 55.51655 121 ft 20 kts 122°
2026-04-30 11:07 25.32629 55.51779 121 ft 17 kts 122°
2026-04-30 11:07 25.32559 55.51901 119 ft 21 kts 122°
2026-04-30 11:07 25.32478 55.52044 120 ft 23 kts 122°
2026-04-30 11:08 25.32397 55.52184 119 ft 22 kts 122°
2026-04-30 11:08 25.32329 55.52304 119 ft 19 kts 122°
2026-04-30 11:08 25.32270 55.52406 121 ft 14 kts 122°
2026-04-30 11:08 25.32211 55.52509 119 ft 18 kts 122°
2026-04-30 11:09 25.32156 55.52605 121 ft 12 kts 122°
2026-04-30 11:09 25.32104 55.52694 119 ft 15 kts 122°
2026-04-30 11:09 25.32047 55.52794 119 ft 14 kts 122°
2026-04-30 11:09 25.31992 55.52889 119 ft 14 kts 122°
2026-04-30 11:10 25.31957 55.52950 120 ft 11 kts 122°
2026-04-30 11:10 25.31912 55.53029 121 ft 14 kts 122°
2026-04-30 11:10 25.31863 55.53114 121 ft 13 kts 122°
2026-04-30 11:10 25.31820 55.53190 119 ft 11 kts 122°
2026-04-30 11:11 25.31792 55.53270 122 ft 11 kts 102°
2026-04-30 11:11 25.31798 55.53348 119 ft 11 kts 57°
2026-04-30 11:11 25.31861 55.53404 120 ft 3 kts 33°
2026-04-30 11:11 25.31885 55.53421 121 ft 5 kts 33°
2026-04-30 11:12 25.31900 55.53431 121 ft 0 kts 32°
2026-04-30 11:14 25.31901 55.53432 121 ft 1 kts 32°
2026-04-30 11:14 25.31911 55.53439 121 ft 3 kts 32°
2026-04-30 11:14 25.31936 55.53457 121 ft 6 kts 32°
2026-04-30 11:14 25.31974 55.53484 123 ft 7 kts 32°
2026-04-30 11:15 25.32020 55.53516 126 ft 8 kts 32°
2026-04-30 11:15 25.32085 55.53525 124 ft 11 kts 334°
2026-04-30 11:15 25.32131 55.53454 122 ft 12 kts 301°
2026-04-30 11:15 25.32145 55.53430 123 ft 0 kts 302°
2026-04-30 11:16 25.32221 55.53296 122 ft 55 kts 302°
2026-04-30 11:16 25.32554 55.52713 126 ft 122 kts 302°
2026-04-30 11:16 25.33113 55.51735 142 ft 175 kts 302°
2026-04-30 11:17 25.33792 55.50547 749 ft 184 kts 302°
2026-04-30 11:17 25.34464 55.49369 1489 ft 185 kts 303°
2026-04-30 11:17 25.35167 55.48131 1976 ft 190 kts 304°
2026-04-30 11:17 25.35883 55.46861 2296 ft 203 kts 305°
2026-04-30 11:18 25.36631 55.45473 2636 ft 219 kts 299°
2026-04-30 11:18 25.37534 55.41928 3365 ft 259 kts 278°
2026-04-30 11:18 25.37549 55.39890 3935 ft 269 kts 265°
2026-04-30 11:19 25.37020 55.37895 4652 ft 273 kts 245°
2026-04-30 11:19 25.35972 55.36141 5394 ft 275 kts 236°
2026-04-30 11:19 25.34958 55.34357 6282 ft 273 kts 247°
2026-04-30 11:19 25.34398 55.32349 7119 ft 273 kts 258°
2026-04-30 11:20 25.34007 55.30318 7962 ft 275 kts 259°
2026-04-30 11:20 25.33645 55.28231 8804 ft 277 kts 259°
2026-04-30 11:20 25.33294 55.26129 9711 ft 278 kts 259°
2026-04-30 11:20 25.32944 55.24010 10521 ft 282 kts 259°
2026-04-30 11:21 25.32583 55.21819 11023 ft 298 kts 259°
2026-04-30 11:21 25.32199 55.19493 11497 ft 314 kts 259°
2026-04-30 11:21 25.31810 55.17124 12491 ft 309 kts 259°
2026-04-30 11:21 25.31430 55.14817 13677 ft 302 kts 259°
2026-04-30 11:22 25.31054 55.12536 14547 ft 302 kts 259°
2026-04-30 11:22 25.30679 55.10265 15304 ft 306 kts 259°
2026-04-30 11:22 25.30294 55.07937 16091 ft 308 kts 259°
2026-04-30 11:22 25.29907 55.05597 16907 ft 310 kts 260°
2026-04-30 11:23 25.29516 55.03233 17714 ft 313 kts 260°
2026-04-30 11:23 25.29122 55.00843 18454 ft 316 kts 260°
2026-04-30 11:23 25.28324 54.96005 19863 ft 320 kts 259°
2026-04-30 11:24 25.27923 54.93581 20598 ft 322 kts 259°
2026-04-30 11:24 25.27522 54.91168 21275 ft 324 kts 259°
2026-04-30 11:24 25.27112 54.88707 21688 ft 326 kts 258°
2026-04-30 11:25 25.26254 54.83584 21824 ft 360 kts 258°
2026-04-30 11:25 25.25783 54.80776 21826 ft 382 kts 258°
2026-04-30 11:25 25.24775 54.74754 21823 ft 407 kts 259°
2026-04-30 11:26 25.23752 54.68625 21820 ft 408 kts 259°
2026-04-30 11:26 25.23236 54.65534 21819 ft 408 kts 258°
2026-04-30 11:26 25.22719 54.62443 21819 ft 408 kts 258°
2026-04-30 11:27 25.22202 54.59357 21821 ft 408 kts 258°
2026-04-30 11:27 25.21756 54.56256 21817 ft 409 kts 263°
2026-04-30 11:27 25.21680 54.53109 21819 ft 410 kts 270°
2026-04-30 11:27 25.21998 54.49963 21822 ft 413 kts 278°
2026-04-30 11:28 25.23434 54.43791 21821 ft 415 kts 283°
2026-04-30 11:28 25.24215 54.40726 21821 ft 415 kts 283°
2026-04-30 11:28 25.24987 54.37694 21821 ft 415 kts 283°
2026-04-30 11:29 25.25769 54.34602 21823 ft 415 kts 283°
2026-04-30 11:29 25.26541 54.31536 21823 ft 414 kts 283°
2026-04-30 11:29 25.28072 54.25385 21825 ft 414 kts 282°
2026-04-30 11:30 25.29614 54.19146 21826 ft 423 kts 282°
2026-04-30 11:30 25.30391 54.16005 21826 ft 423 kts 282°
2026-04-30 11:30 25.31136 54.12895 21822 ft 423 kts 281°
2026-04-30 11:31 25.31815 54.09731 21823 ft 423 kts 280°
2026-04-30 11:31 25.32485 54.06565 21823 ft 423 kts 280°
2026-04-30 11:31 25.33152 54.03399 21821 ft 423 kts 280°
2026-04-30 11:31 25.33822 54.00225 21825 ft 422 kts 280°
2026-04-30 11:32 25.34489 53.97063 21828 ft 422 kts 280°
2026-04-30 11:32 25.35158 53.93894 21829 ft 422 kts 280°
2026-04-30 11:32 25.35827 53.90722 21823 ft 423 kts 280°
2026-04-30 11:33 25.37152 53.84431 21825 ft 423 kts 280°
2026-04-30 11:33 25.37820 53.81255 21824 ft 423 kts 280°
2026-04-30 11:33 25.38439 53.78083 21816 ft 421 kts 276°
2026-04-30 11:33 25.38390 53.74867 21817 ft 418 kts 263°
2026-04-30 11:34 25.38072 53.71670 21820 ft 418 kts 263°
2026-04-30 11:34 25.37762 53.68469 21823 ft 418 kts 263°
2026-04-30 11:34 25.37467 53.65262 21826 ft 418 kts 263°
2026-04-30 11:34 25.37186 53.62059 21826 ft 418 kts 263°
2026-04-30 11:35 25.36916 53.58898 21829 ft 418 kts 263°
2026-04-30 11:35 25.36648 53.55699 21829 ft 418 kts 263°
2026-04-30 11:35 25.36382 53.52495 21832 ft 418 kts 263°
2026-04-30 11:35 25.36117 53.49294 21828 ft 418 kts 263°
2026-04-30 11:36 25.35853 53.46088 21832 ft 418 kts 263°
2026-04-30 11:36 25.35588 53.42882 21833 ft 418 kts 263°
2026-04-30 11:36 25.35323 53.39676 21831 ft 418 kts 263°
2026-04-30 11:36 25.35058 53.36476 21837 ft 418 kts 263°
2026-04-30 11:37 25.34793 53.33277 21835 ft 418 kts 263°
2026-04-30 11:37 25.34530 53.30114 21833 ft 418 kts 263°
2026-04-30 11:37 25.34263 53.26911 21836 ft 418 kts 263°
2026-04-30 11:37 25.33995 53.23706 21833 ft 418 kts 263°
2026-04-30 11:38 25.33727 53.20506 21834 ft 418 kts 263°
2026-04-30 11:38 25.33459 53.17307 21838 ft 418 kts 263°
2026-04-30 11:38 25.33189 53.14099 21835 ft 418 kts 263°
2026-04-30 11:38 25.32919 53.10897 21837 ft 418 kts 263°
2026-04-30 11:39 25.32649 53.07698 21836 ft 418 kts 263°
2026-04-30 11:39 25.32377 53.04498 21838 ft 418 kts 263°
2026-04-30 11:39 25.32105 53.01300 21842 ft 418 kts 263°
2026-04-30 11:39 25.31830 52.98137 21842 ft 418 kts 262°
2026-04-30 11:40 25.31411 52.94957 21842 ft 417 kts 259°
2026-04-30 11:40 25.30884 52.91801 21846 ft 417 kts 258°
2026-04-30 11:40 25.30349 52.88652 21845 ft 417 kts 258°
2026-04-30 11:40 25.29814 52.85494 21845 ft 417 kts 258°
2026-04-30 11:41 25.29280 52.82340 21845 ft 417 kts 258°
2026-04-30 11:41 25.28749 52.79189 21849 ft 417 kts 258°
2026-04-30 11:41 25.28217 52.76031 21845 ft 417 kts 258°
2026-04-30 11:41 25.27668 52.72924 21845 ft 417 kts 256°
2026-04-30 11:42 25.26819 52.69859 21845 ft 417 kts 249°
2026-04-30 11:42 25.25631 52.66928 21846 ft 417 kts 243°
2026-04-30 11:42 25.24137 52.64176 21848 ft 418 kts 238°
2026-04-30 11:42 25.22523 52.61500 21845 ft 418 kts 237°
2026-04-30 11:43 25.20894 52.58836 21849 ft 418 kts 237°
2026-04-30 11:43 25.19261 52.56178 21847 ft 418 kts 237°
2026-04-30 11:43 25.17624 52.53516 21850 ft 418 kts 237°
2026-04-30 11:43 25.16009 52.50890 21848 ft 418 kts 237°
2026-04-30 11:44 25.14370 52.48234 21848 ft 419 kts 236°
2026-04-30 11:44 25.12559 52.45710 21849 ft 420 kts 230°
2026-04-30 11:44 25.10507 52.43399 21848 ft 422 kts 225°
2026-04-30 11:44 25.08265 52.41342 21614 ft 416 kts 220°
2026-04-30 11:45 25.05954 52.39445 21372 ft 412 kts 219°
2026-04-30 11:45 25.03643 52.37580 21101 ft 411 kts 219°
2026-04-30 11:45 25.01337 52.35724 20831 ft 409 kts 219°
2026-04-30 11:45 24.99070 52.33899 20516 ft 408 kts 219°
2026-04-30 11:46 24.96785 52.32057 20131 ft 406 kts 219°
2026-04-30 11:46 24.94515 52.30228 19699 ft 403 kts 219°
2026-04-30 11:46 24.92294 52.28365 19239 ft 397 kts 224°
2026-04-30 11:46 24.90586 52.26029 18783 ft 389 kts 241°
2026-04-30 11:47 24.89598 52.23278 18390 ft 388 kts 257°
2026-04-30 11:47 24.89260 52.20327 17997 ft 387 kts 264°
2026-04-30 11:47 24.89048 52.17373 17531 ft 384 kts 265°
2026-04-30 11:47 24.88841 52.14448 17083 ft 381 kts 264°
2026-04-30 11:48 24.88632 52.11550 16620 ft 378 kts 264°
2026-04-30 11:48 24.88425 52.08711 16179 ft 375 kts 264°
2026-04-30 11:48 24.88215 52.05857 15725 ft 372 kts 264°
2026-04-30 11:48 24.88006 52.03021 15275 ft 369 kts 264°
2026-04-30 11:49 24.87798 52.00214 14829 ft 366 kts 264°
2026-04-30 11:49 24.87590 51.97409 14382 ft 363 kts 264°
2026-04-30 11:49 24.87384 51.94646 13942 ft 360 kts 264°
2026-04-30 11:49 24.87179 51.91904 13478 ft 358 kts 264°
2026-04-30 11:50 24.86973 51.89170 12999 ft 356 kts 264°
2026-04-30 11:50 24.86770 51.86466 12546 ft 353 kts 264°
2026-04-30 11:50 24.86571 51.83815 12108 ft 350 kts 264°
2026-04-30 11:50 24.86368 51.81145 11663 ft 348 kts 264°
2026-04-30 11:51 24.86167 51.78488 11201 ft 347 kts 264°
2026-04-30 11:51 24.85968 51.75869 10998 ft 336 kts 264°
2026-04-30 11:51 24.85777 51.73349 10852 ft 323 kts 264°
2026-04-30 11:51 24.85594 51.70927 10699 ft 312 kts 264°
2026-04-30 11:52 24.85415 51.68580 10544 ft 302 kts 264°
2026-04-30 11:52 24.85241 51.66314 10399 ft 291 kts 264°
2026-04-30 11:52 24.85074 51.64128 10253 ft 281 kts 264°
2026-04-30 11:52 24.84940 51.62039 10113 ft 273 kts 268°
2026-04-30 11:53 24.84886 51.59897 9979 ft 281 kts 266°
2026-04-30 11:53 24.84774 51.57742 9839 ft 282 kts 266°
2026-04-30 11:53 24.84809 51.55586 9669 ft 283 kts 283°
2026-04-30 11:53 24.85787 51.53668 9623 ft 300 kts 313°
2026-04-30 11:54 24.87556 51.52389 10357 ft 306 kts 332°
2026-04-30 11:54 24.89493 51.51367 11191 ft 312 kts 331°
2026-04-30 11:54 24.91476 51.50296 11900 ft 319 kts 330°
2026-04-30 11:54 24.93419 51.49234 13043 ft 313 kts 329°
2026-04-30 11:55 24.95363 51.48161 14039 ft 312 kts 328°
2026-04-30 11:55 24.97314 51.47071 14839 ft 316 kts 328°
2026-04-30 11:55 24.99279 51.45966 15632 ft 320 kts 328°
2026-04-30 11:55 25.01273 51.44843 16371 ft 323 kts 327°
2026-04-30 11:56 25.03287 51.43708 16829 ft 326 kts 327°
2026-04-30 11:56 25.05313 51.42566 17002 ft 327 kts 327°
2026-04-30 11:56 25.07335 51.41425 16997 ft 326 kts 327°
2026-04-30 11:56 25.09361 51.40283 16997 ft 326 kts 327°
2026-04-30 11:57 25.11352 51.39159 17000 ft 326 kts 327°
2026-04-30 11:57 25.13377 51.38016 17003 ft 326 kts 327°
2026-04-30 11:57 25.15393 51.36877 17000 ft 326 kts 327°
2026-04-30 11:57 25.17413 51.35735 17001 ft 326 kts 327°
2026-04-30 11:58 25.19457 51.34576 17010 ft 340 kts 327°
2026-04-30 11:58 25.21651 51.33323 17015 ft 369 kts 327°
2026-04-30 11:58 25.24018 51.31973 17014 ft 395 kts 328°
2026-04-30 11:58 25.26509 51.30560 17006 ft 407 kts 328°
2026-04-30 11:59 25.29040 51.29132 17003 ft 409 kts 328°
2026-04-30 11:59 25.31545 51.27720 17000 ft 410 kts 328°
2026-04-30 11:59 25.34085 51.26287 17000 ft 410 kts 328°